ROMMA est une association bénévole à but non lucratif. Votre soutien est indispensable : ADHERER à ROMMA ou FAIRE un DON

Chambon - (38, Isère)

Oisans (2460 m)   Longitude: 06° 10' 42" E   Latitude: 45° 01' 32" N Station partenaire n°803
 

Détail journalier du     <<     >>

Température Humidité Vent Dir Rafale Dir. rafale Neige 1 Neige 2
Heure (°C) (%) (km/h) (km/h) (cm) (cm)
01:00 4.05014NNE29NE60
02:00 4.73617NNE29NE50
03:00 4.33916NNE24NNE50
04:00 4.0409NNE16NNE50
05:00 3.0554NNE15NNE50
06:00 4.3369NNE17NNE60
07:00 4.23510NNE18NNE60
08:00 4.7338NNE14NNE60
09:00 6.34010NNE26NE61
10:00 7.5375N17N51
11:00 9.1414NE12ENE00
12:00 9.5446NNE15NE20
13:00 9.8465NE14NE20
14:00 10.5464NE14NE20
15:00 10.9463NE13NE20
16:00 11.2499O21O20
17:00 11.25014OSO26OSO20
18:00 11.15516OSO27OSO10
19:00 10.26116OSO28OSO10
20:00 9.36914OSO26OSO20
21:00 8.05913OSO19OSO10
22:00 7.36112OSO16OSO00
23:00 7.0569OSO16OSO70
minuit 6.6687SO10SO70

Graphique du 14-08-2019

 

Serveur OMMA